Weather in Lifford

Ireland     54°49′58″N   7°28′54″W
В апреле 2022 года жителям России запретили посещать сайт meteo.paraplan.net по решению Генеральной прокуратуры. Аудитория сайта уменьшилась в 10 раз. Владельцы сайта не видят смысла в поддержке погодного сервера в таких условиях. Сайт будет закрыт в октябре.
temp.,
°C
wind,
m/s
gust,
m/s
humid.,
%
clouds,
%
prec.,
mm/h
press.,
hPa
HPBL,
m
6 october, thu
thu601:00+9sw7158136 0.0 1014949
04:00+12wsw8168579 0.3 10141285
07:00+11wsw71485100 0.5 10161078
10:00+12sw6128587 0.3 10171173
13:00+12sw6128697 0.8 10171060
16:00+12ssw51293100 0.7 10141022
19:00+12sw8168899 1.6 10141124
22:00+12sw81789100 0.6 10121225
7 october, fri
fri701:00+12sw81691100 2.4 10101275
04:00+11wsw61390100 5.0 10091055
07:00+9wsw5128942 5.6 1009678
10:00+9wsw51183100 0.8 10101010
13:00+11wsw7137982 1.7 10101675
16:00+11w713805 1.1 10111420
19:00+9w511866 1.7 1013490
22:00+8w410845 0.1 1016375
8 october, sat
sat801:00+7w38885 0.1 1018232
04:00+6ssw22949 0.0 101937
07:00+6s239685 0.0 101964
10:00+10sw398447 0.1 1020692
13:00+13sw586966 0.1 10191107
16:00+13ssw477198 0.1 10181164
19:00+10s398999 0.3 1017403
22:00+8sse2595100 0.0 1015120
9 october, sun
sun901:00+9sse41388100 0.0 1012636
04:00+9sse61490100 0.1 1007802
07:00+10sse71593100 1.3 1003824
10:00+11sse92095100 5.3 9971239
13:00+13ssw61694100 13.9 9951167
16:00+10nw9158548 0.5 10011000
19:00+8nw512745 0.5 1006597
22:00+10wnw61162100 0.0 10091114
10 october, mon
mon1001:00+10w6127358 0.1 10121049
04:00+8wnw4107685 0.1 1015329
07:00+6wsw228223 0.1 101730
10:00+10wsw277456 0.0 1020629
13:00+13w4760100 0.0 10211455
16:00+13sw4670100 0.1 10221103
19:00+10s2286100 0.1 102238
22:00+7sse229577 0.0 102135